Regional Weather Roundup
Issued by NWS

Home | Current Version | Previous Version | Graphics & Text | Print | Product List | Glossary On
Versions: 1 2 3 4 5 6 7 8 9 10 11 12 13 14 15 16 17 18 19 20 21 22 23 24 25 26 27
000
ASUS45 KTFX 231210
RWRMT
MONTANA REGIONAL WEATHER ROUNDUP
NATIONAL WEATHER SERVICE GREAT FALLS MT
600 AM MDT SUN APR 23 2017

NOTE: "FAIR" INDICATES FEW OR NO CLOUDS BELOW 12000 FEET WITH NO
SIGNIFICANT WEATHER AND/OR OBSTRUCTIONS TO VISIBILITY.

MTZ001>007-043-231300-
WEST OF THE DIVIDE

CITY           SKY/WX    TMP DP  RH WIND       PRES   REMARKS
KALISPELL      CLOUDY    42  37  82 CALM      29.83F
MISSOULA       CLOUDY    47  38  71 NW17      29.84S
BUTTE          CLOUDY    38  30  73 CALM      29.83S
MULLAN PASS    CLOUDY    34  30  85 CALM      29.85S
ANACONDA         N/A     43  27  52 SW7       29.82R
DEER LODGE       N/A     37  30  75 CALM      29.84R
EUREKA           N/A     43  37  81 SE3       29.82F
HAMILTON         N/A     46  39  76 W5        29.84S
LIBBY            N/A     37  37 100 CALM      29.84F
PLAINS           N/A     47  37  68 SE5       29.87F
RONAN            N/A     45  39  79 CALM      29.91S
$$

MTZ008-052>055-231300-
SOUTHWEST MONTANA

CITY           SKY/WX    TMP DP  RH WIND       PRES   REMARKS
BOZEMAN        CLOUDY    39  35  86 SE5       29.80F
DILLON         CLOUDY    43  30  60 S7        29.82S
W YELLOWSTONE  CLOUDY    30  28  93 CALM      29.95S
ENNIS          CLOUDY    45  27  49 S9G20     29.88S
THREE FORKS      N/A     42   0  17 CALM      29.81F
TWIN BRIDGES     N/A     41  28  60 E7        29.83F
$$

MTZ009-010-012-014-046-048-049-054-231300-
EAST SLOPES AND CENTRAL MONTANA

CITY           SKY/WX    TMP DP  RH WIND       PRES   REMARKS
CUT BANK       CLOUDY    39  39 100 SE5       29.81F FOG
GREAT FALLS    CLOUDY    39  38  96 NW6       29.79F
MALMSTROM AFB  CLOUDY    42  40  94 N3        29.79F
HELENA         CLOUDY    43  34  70 CALM      29.78F
AUGUSTA        MOCLDY    38  37  99 CALM      29.79F
BOWMANS CRNR     N/A     38  36  91 CALM      29.77F
CHOTEAU        FOG       39  39 100 NE5       29.81F VSB 0
FAIRFIELD      FOG       38  36  94 CALM      29.78F VSB 5/16
POWER          FOG       37  37  99 N7        29.79S VSB 1/2
RAYNESFORD     MOCLDY    41  35  80 CALM      29.79F
ULM            MOCLDY    39  38  97 CALM      29.79F
$$

MTZ011-013-016-021-045-047-050-051-231300-
NORTH CENTRAL MONTANA

CITY           SKY/WX    TMP DP  RH WIND       PRES   REMARKS
HAVRE          CLOUDY    41  38  89 E18G29    29.82F
LEWISTOWN      CLOUDY    39  34  82 SE6       29.79F
N BAR RANCH      N/A     39  34  81 CALM      29.82F
CHINOOK          N/A     39  37  93 E15G23    29.86S WCI  31
DENTON         FOG       37  37  98 MISG      29.76F VSB 3/8
FORT BENTON      N/A     43  39  87 MISG      29.80F
GEYSER           N/A     41  33  75 SW8       29.78F
GRASS RANGE    MOCLDY    38  35  90 NW3       29.76F
JUDITH GAP     MOCLDY    39  35  84 S10       29.79F
STANFORD         N/A     47  30  50 W9        29.78F
WINIFRED       LGT RAIN  40  40 100 E13       29.79F VSB 3/8
$$

MTZ017>020-022>027-061-062-231300-
NORTHEAST MONTANA

CITY           SKY/WX    TMP DP  RH WIND       PRES   REMARKS
GLASGOW        CLOUDY    36  31  82 E26G33    29.90S WCI  24
JORDAN           N/A     41  38  89 E10       29.84F
SIDNEY         CLOUDY    35  30  82 E12       30.01S WCI  27
WOLF POINT     CLOUDY    37  31  78 E22G30    29.95F WCI  26
MALTA          CLOUDY    39  36  87 E17       29.89S WCI  30
PLENTYWOOD       N/A     30  27  86 E20G28    30.03F WCI  18
POPLAR           N/A     34  28  80 E16G28    29.98F WCI  23
SCOBEY           N/A     32  25  76 E20       29.95S WCI  20
$$

MTZ028>42-056>058-231300-
SOUTHCENTRAL AND SOUTHEAST MONTANA

CITY           SKY/WX    TMP DP  RH WIND       PRES   REMARKS
BAKER          CLOUDY    34  32  92 E22       29.90F FOG     WCI  22
BILLINGS       CLOUDY    45  38  76 CALM      29.80F
LIVINGSTON     CLOUDY    40  33  76 CALM      29.81F
MILES CITY     CLOUDY    43  39  86 E16       29.85F
BIG TIMBER     CLEAR     41  34  75 S6        29.83F
EKALAKA          N/A     38  35  89 E5        29.85F
LAUREL           N/A     42  36  79 CALM      29.80F
ROUNDUP          N/A     41  35  79 W6        29.73F
$$

REGIONAL REPORTS...DAKOTAS

CITY           SKY/WX    TMP DP  RH WIND       PRES   REMARKS
WILLISTON      CLOUDY    33  27  78 E12G23    30.05F WCI  24
MINOT          FLURRIES  30  16  56 E18       30.13F WCI  18
DICKINSON      CLOUDY    31  29  92 E23       29.96S WCI  18
BEACH          CLOUDY    32  32 100 E16G24    29.98R WCI  21
TIOGA          CLOUDY    28  28 100 E23G31    30.08R WCI  14
WATFORD CITY   CLOUDY    32  30  93 E21G30    30.02F WCI  20
BISMARCK       CLOUDY    33  24  69 E23G30    30.07F WCI  21
GRAND FORKS    CLOUDY    33  24  69 NE12      30.22F WCI  24
FARGO          LGT SNOW  33  32  96 NE14      30.15F VSB 1   WCI  23
BUFFALO SD       N/A     39  37  92 E21       29.81F WCI  29
RAPID CITY     CLOUDY    43  33  68 SE9       29.86F
$$

REGIONAL REPORTS...WYOMING/IDAHO/WASHINGTON

CITY           SKY/WX    TMP DP  RH WIND       PRES   REMARKS
GILLETTE       CLOUDY    40  35  83 SE5       29.84F
SHERIDAN       CLOUDY    35  31  85 CALM      29.83F
BUFFALO WY     CLOUDY    45  27  49 W7        29.86S
CODY           CLOUDY    46  30  53 SW10      29.87F
YELLOWSTONE LA   N/A     26  24  92 CALM      29.99S
IDAHO FALLS    CLOUDY    42  37  82 N3        29.91F
SALMON         CLOUDY   N/A N/A N/A MISG        N/A
BOISE          CLOUDY    49  39  68 S7        29.81S
SPOKANE        CLOUDY    44  39  82 S5        29.85F
$$

REGIONAL REPORTS...ALBERTA

CITY           SKY/WX    TMP DP  RH WIND       PRES   REMARKS
EDMONTON       LGT SNOW  28  27  93 E16       29.95F VSB 5/8 WCI  17
CALGARY        DRZL/FOG  34  34 100 E7        29.82F VSB 5/8 WCI  28
LETHBRIDGE     CLOUDY    39  39 100 SW8       29.80S
MEDICINE HAT   MOCLDY    39  37  93 NE8       29.83F
WATERTON GATE    N/A     39  34  81 S7          N/A
CARDSTON         N/A     39  37  93 SW3         N/A
MILK RIVER       N/A     43  41  93 SW5         N/A
$$

REGIONAL REPORTS...SASKATCHEWAN

CITY           SKY/WX    TMP DP  RH WIND       PRES   REMARKS
SWIFT CURRENT  CLOUDY    34  32  93 SE20G30   29.93F WCI  22
REGINA         CLOUDY    32  21  64 SE14G24   30.09F WCI  22
SASKATOON      MOCLDY    34  21  60 E12       30.12F WCI  25
CYPRESS HILLS    N/A     32  34 100 SE10        N/A  WCI  24
VAL MARIE        N/A     34  32  93 E22G28      N/A  WCI  22
ROCKGLEN         N/A     30  30 100 E16G24      N/A  WCI  19
ASSINIBOIA       N/A     30  28  93 E13         N/A  WCI  20
$$




USA.gov is the U.S. government's official web portal to all federal, state and local government web resources and services.